TimeMST,TemperatureF,Dew PointF,Humidity,Sea Level PressureIn,VisibilityMPH,Wind Direction,Wind SpeedMPH,Gust SpeedMPH,PrecipitationIn,Events,Conditions,WindDirDegrees,DateUTC
12:53 AM,41.0,28.0,60,29.79,10.0,South,15.0,-,N/A,,Clear,170,2012-12-02 07:53:00
1:53 AM,46.0,27.0,47,29.78,10.0,SSE,12.7,-,N/A,,Clear,160,2012-12-02 08:53:00
2:53 AM,43.0,28.0,56,29.75,10.0,SSE,15.0,23.0,N/A,,Clear,150,2012-12-02 09:53:00
3:53 AM,43.0,28.0,56,29.74,10.0,SSE,13.8,-,N/A,,Clear,150,2012-12-02 10:53:00
4:53 AM,43.0,28.9,58,29.73,10.0,SSE,11.5,-,N/A,,Clear,150,2012-12-02 11:53:00
5:53 AM,44.1,28.9,55,29.71,10.0,South,13.8,20.7,N/A,,Clear,170,2012-12-02 12:53:00
6:53 AM,44.1,28.9,55,29.68,10.0,SSE,12.7,-,N/A,,Clear,160,2012-12-02 13:53:00
7:53 AM,45.0,27.0,49,29.61,10.0,South,26.5,34.5,N/A,,Clear,170,2012-12-02 14:53:00
8:53 AM,46.9,27.0,46,29.59,10.0,South,32.2,38.0,N/A,,Clear,170,2012-12-02 15:53:00
9:53 AM,50.0,28.0,43,29.57,10.0,South,28.8,38.0,N/A,,Clear,170,2012-12-02 16:53:00
10:53 AM,52.0,28.9,41,29.54,10.0,SSE,29.9,36.8,N/A,,Clear,160,2012-12-02 17:53:00
11:53 AM,54.0,28.0,37,29.50,10.0,South,25.3,35.7,N/A,,Clear,170,2012-12-02 18:53:00
12:53 PM,57.0,27.0,32,29.46,10.0,South,25.3,34.5,N/A,,Clear,170,2012-12-02 19:53:00
1:53 PM,57.9,27.0,31,29.42,10.0,SSE,19.6,29.9,N/A,,Clear,160,2012-12-02 20:53:00
2:53 PM,57.9,27.0,31,29.41,10.0,South,18.4,26.5,N/A,,Clear,170,2012-12-02 21:53:00
3:53 PM,57.0,28.0,33,29.41,10.0,SE,11.5,-,N/A,,Clear,140,2012-12-02 22:53:00
4:53 PM,57.9,28.0,32,29.42,10.0,South,15.0,23.0,N/A,,Clear,170,2012-12-02 23:53:00
5:03 PM,60.8,28.4,29,29.46,10.0,SSW,24.2,-,N/A,,Clear,200,2012-12-03 00:03:00
5:53 PM,57.9,30.9,36,29.42,10.0,South,18.4,27.6,N/A,,Clear,190,2012-12-03 00:53:00
6:53 PM,57.0,30.9,37,29.42,10.0,South,20.7,32.2,N/A,,Clear,190,2012-12-03 01:53:00
7:53 PM,53.1,30.0,41,29.44,10.0,South,17.3,-,N/A,,Clear,180,2012-12-03 02:53:00
8:53 PM,51.1,32.0,48,29.47,10.0,South,15.0,-,N/A,,Scattered Clouds,170,2012-12-03 03:53:00
9:53 PM,53.1,33.1,47,29.52,10.0,South,11.5,-,N/A,,Overcast,180,2012-12-03 04:53:00
10:53 PM,48.9,33.1,54,29.56,10.0,NE,3.5,-,N/A,,Overcast,50,2012-12-03 05:53:00
11:53 PM,43.0,30.9,62,29.62,10.0,North,13.8,19.6,N/A,,Mostly Cloudy,350,2012-12-03 06:53:00